Starlink 30228

operational
NORAD ID: 57502 Int'l Des: 2023-113 Owner: SPXS Country: US Constellation: starlink
LEOCIRCULAR

About Starlink 30228

Description loading...

Live Position

Loading 3D Globe...

Upcoming Passes

Altitude History

Altitude vs Time

uPlot chart will show altitude changes over time

Two-Line Element Set

1 57502U 23113H 25306.28286229 .00071795 00000-0 16074-2 0 9993
2 57502 42.9893 306.2709 0020199 108.6640 251.6412 15.42342505124895
Epoch: Nov 2, 2025 • Age: 26 hours

Current Status

Altitude 432.5 km
Velocity 7.66 km/s
Sub-Earth Point 0.16°N, 49.35°W
Launch Date Aug 7, 2023
Age 2.2 years
Type internet

Technical Details

Classification Payload
Mass 730.00 kg
Dry Mass 700.00 kg
Total Mass 730.00 kg
Length 0.30 m
Diameter 4.10 m
Span 29.00 m
Shape Box + pan
Manufacturer SPXS
Bus Type Starlink V2M
Phase Status In Orbit
Owner/State SPXS/US

Large Constellations

Loading constellations...